Sanford, NC

9:55 AM EST on November 19, 2017 (GMT -0500)
Raleigh Executive Jetport

Weather History for KTTA - October, 2013

Change the Weather History Date:

Tuesday, October 15, 2013

  Actual Average (KHRJ) Record (KHRJ)
Temperature  
Mean Temperature 59 °F -  
Max Temperature 70 °F 76 °F 87 °F (1985)
Min Temperature 48 °F 47 °F 31 °F (1979)
Degree Days  
Heating Degree Days 6    
Growing Degree Days 9 (Base 50)    
Moisture  
Dew Point 53 °F    
Average Humidity 83    
Maximum Humidity 98    
Minimum Humidity 59    
Precipitation  
Precipitation 0.00 in - - ()
Sea Level Pressure  
Sea Level Pressure 30.13 in    
Wind  
Wind Speed 3 mph (NNE)    
Max Wind Speed 10 mph    
Max Gust Speed 16 mph    
Visibility 9 miles    
Events Fog    
Averages and records for this station are not official NWS values.
T = Trace of Precipitation, MM = Missing Value Source: NWS Daily Summary

Daily Weather History Graph

Daily Weather History Graph

Search for Another Location

Airport or City:

Trip Planner

Search our weather history database for the weather conditions in past years. The results will help you decide how hot, cold, wet, or windy it might be!

Date:

Astronomy

Oct. 15, 2013 Rise Set
Actual Time 7:23 AM EDT 6:40 PM EDT
Civil Twilight 6:57 AM EDT 7:06 PM EDT
Nautical Twilight 6:27 AM EDT 7:35 PM EDT
Astronomical Twilight 5:58 AM EDT 8:05 PM EDT
Moon 4:39 PM EDT (10/15) 3:50 AM EDT (10/15)
Length of Visible Light 12h 08m
Length of Day
11h 17m
Waxing Gibbous, 87% of the Moon is Illuminated
Oct 15
Waxing Gibbous
Oct 18
Full
Oct 26
Last Quarter
Nov 3
New
Nov 10
First Quarter

Hourly Weather History & Observations

Time (EDT) Temp. Dew Point Humidity Pressure Visibility Wind Dir Wind Speed Gust Speed Precip Events Conditions
12:15 AM 53.2 °F 51.8 °F 95% 30.20 in 10.0 mi North 4.6 mph - N/A   Clear
12:35 AM 52.3 °F 50.9 °F 95% 30.20 in 10.0 mi NNE 3.5 mph - N/A   Clear
12:55 AM 51.8 °F 50.4 °F 95% 30.19 in 10.0 mi North 3.5 mph - N/A   Clear
1:15 AM 51.3 °F 50.0 °F 95% 30.19 in 10.0 mi Calm Calm - N/A   Clear
1:35 AM 50.9 °F 50.0 °F 97% 30.19 in 7.0 mi Calm Calm - N/A   Clear
1:55 AM 50.5 °F 49.5 °F 96% 30.19 in 10.0 mi Calm Calm - N/A   Clear
2:15 AM 50.4 °F 49.3 °F 96% 30.18 in 10.0 mi Calm Calm - N/A   Clear
2:35 AM 50.0 °F 49.1 °F 97% 30.18 in 7.0 mi Calm Calm - N/A   Clear
2:55 AM 50.2 °F 49.3 °F 97% 30.17 in 10.0 mi Calm Calm - N/A   Clear
3:15 AM 50.9 °F 50.0 °F 97% 30.17 in 10.0 mi NNE 4.6 mph - N/A   Clear
3:35 AM 50.7 °F 49.8 °F 97% 30.16 in 10.0 mi NNE 5.8 mph - N/A   Clear
3:55 AM 50.5 °F 49.5 °F 96% 30.15 in 10.0 mi NNE 5.8 mph - N/A   Clear
4:15 AM 50.9 °F 49.5 °F 95% 30.16 in 10.0 mi NNE 5.8 mph - N/A   Clear
4:35 AM 50.4 °F 49.1 °F 95% 30.16 in 10.0 mi Calm Calm - N/A   Clear
4:55 AM 50.2 °F 49.1 °F 96% 30.16 in 10.0 mi Calm Calm - N/A   Scattered Clouds
5:15 AM 49.5 °F 48.4 °F 96% 30.16 in 5.0 mi Calm Calm - N/A   Scattered Clouds
5:35 AM 48.0 °F 46.9 °F 96% 30.16 in 0.8 mi Calm Calm - N/A   Overcast
5:55 AM 50.2 °F 49.5 °F 97% 30.16 in 10.0 mi NNE 5.8 mph - N/A   Overcast
6:15 AM 50.2 °F 49.3 °F 97% 30.16 in 7.0 mi NNE 6.9 mph - N/A   Overcast
6:35 AM 50.0 °F 49.1 °F 97% 30.17 in 7.0 mi NNE 4.6 mph - N/A   Mostly Cloudy
6:55 AM 49.1 °F 48.2 °F 97% 30.17 in 7.0 mi Calm Calm - N/A   Scattered Clouds
7:15 AM 48.6 °F 47.7 °F 97% 30.17 in 3.0 mi Calm Calm - N/A   Overcast
7:35 AM 48.0 °F 47.1 °F 97% 30.17 in 0.2 mi Calm Calm - N/A Fog Fog
7:55 AM 48.4 °F 47.7 °F 97% 30.17 in 2.5 mi Calm Calm - N/A   Scattered Clouds
8:15 AM 49.5 °F 48.9 °F 98% 30.17 in 7.0 mi North 3.5 mph - N/A   Clear
8:35 AM 50.0 °F 49.3 °F 97% 30.17 in 10.0 mi North 4.6 mph - N/A   Scattered Clouds
8:55 AM 50.9 °F 50.0 °F 97% 30.18 in 10.0 mi NNE 3.5 mph - N/A   Mostly Cloudy
9:15 AM 50.9 °F 49.1 °F 94% 30.18 in 10.0 mi NNE 10.4 mph 16.1 mph N/A   Scattered Clouds
9:35 AM 51.3 °F 48.7 °F 91% 30.18 in 10.0 mi NE 8.1 mph - N/A   Scattered Clouds
9:55 AM 53.6 °F 49.8 °F 87% 30.18 in 10.0 mi NNE 6.9 mph - N/A   Scattered Clouds
10:15 AM 56.1 °F 51.3 °F 84% 30.17 in 10.0 mi NE 6.9 mph - N/A   Scattered Clouds
10:35 AM 58.3 °F 51.8 °F 79% 30.17 in 10.0 mi NE 6.9 mph - N/A   Clear
10:55 AM 60.4 °F 52.0 °F 74% 30.17 in 10.0 mi NNE 8.1 mph - N/A   Clear
11:15 AM 61.5 °F 52.3 °F 72% 30.17 in 10.0 mi North 8.1 mph - N/A   Clear
11:35 AM 62.8 °F 52.7 °F 70% 30.16 in 10.0 mi North 5.8 mph - N/A   Clear
11:55 AM 63.7 °F 52.5 °F 67% 30.16 in 10.0 mi NNE 9.2 mph - N/A   Clear
12:15 PM 64.6 °F 52.3 °F 64% 30.15 in 10.0 mi NNE 5.8 mph - N/A   Clear
12:35 PM 65.3 °F 51.8 °F 62% 30.14 in 10.0 mi North 10.4 mph - N/A   Mostly Cloudy
12:55 PM 66.9 °F 52.7 °F 60% 30.12 in 10.0 mi NNW 9.2 mph - N/A   Overcast
1:15 PM 67.3 °F 53.1 °F 60% 30.12 in 10.0 mi NNW 6.9 mph - N/A   Scattered Clouds
1:35 PM 68.0 °F 53.4 °F 60% 30.11 in 10.0 mi North 3.5 mph - N/A   Clear
1:55 PM 68.2 °F 53.6 °F 60% 30.09 in 10.0 mi North 5.8 mph - N/A   Clear
2:15 PM 69.1 °F 54.1 °F 59% 30.08 in 10.0 mi North 10.4 mph - N/A   Clear
2:35 PM 68.7 °F 54.0 °F 59% 30.09 in 10.0 mi North 3.5 mph - N/A   Scattered Clouds
2:55 PM 68.7 °F 54.5 °F 60% 30.09 in 10.0 mi NNW 4.6 mph - N/A   Scattered Clouds
3:15 PM 69.8 °F 55.8 °F 61% 30.07 in 10.0 mi NNE 4.6 mph - N/A   Mostly Cloudy
3:35 PM 70.2 °F 55.8 °F 60% 30.07 in 10.0 mi North 6.9 mph - N/A   Overcast
3:55 PM 69.8 °F 56.8 °F 63% 30.06 in 10.0 mi NNE 5.8 mph - N/A   Overcast
4:15 PM 68.9 °F 56.8 °F 65% 30.07 in 10.0 mi NE 5.8 mph - N/A   Overcast
4:35 PM 68.4 °F 56.7 °F 66% 30.06 in 10.0 mi NNE 5.8 mph - N/A   Overcast
4:55 PM 67.8 °F 57.2 °F 69% 30.06 in 10.0 mi NNE 5.8 mph - N/A   Overcast
5:15 PM 68.0 °F 57.0 °F 68% 30.07 in 10.0 mi NNW 3.5 mph - N/A   Mostly Cloudy
5:35 PM 67.5 °F 57.6 °F 70% 30.07 in 10.0 mi North 3.5 mph - N/A   Mostly Cloudy
5:55 PM 67.5 °F 58.3 °F 72% 30.07 in 10.0 mi North 3.5 mph - N/A   Mostly Cloudy
6:15 PM 66.0 °F 58.6 °F 77% 30.07 in 10.0 mi Calm Calm - N/A   Mostly Cloudy
6:35 PM 65.5 °F 58.8 °F 79% 30.07 in 10.0 mi Calm Calm - N/A   Overcast
6:55 PM 63.7 °F 59.4 °F 86% 30.07 in 10.0 mi Calm Calm - N/A   Overcast
7:15 PM 63.9 °F 59.0 °F 84% 30.07 in 10.0 mi Calm Calm - N/A   Overcast
7:35 PM 63.5 °F 59.2 °F 86% 30.08 in 10.0 mi Calm Calm - N/A   Overcast
7:55 PM 62.8 °F 59.2 °F 88% 30.08 in 10.0 mi Calm Calm - N/A   Overcast
8:15 PM 63.0 °F 58.6 °F 86% 30.08 in 10.0 mi Calm Calm - N/A   Overcast
8:35 PM 63.0 °F 58.8 °F 86% 30.08 in 10.0 mi Calm Calm - N/A   Overcast
8:55 PM 62.6 °F 58.6 °F 87% 30.08 in 10.0 mi Calm Calm - N/A   Overcast
9:15 PM 63.0 °F 58.3 °F 85% 30.08 in 10.0 mi Calm Calm - N/A   Overcast
9:35 PM 63.0 °F 58.3 °F 85% 30.08 in 10.0 mi Calm Calm - N/A   Overcast
9:55 PM 63.5 °F 58.1 °F 83% 30.09 in 10.0 mi Calm Calm - N/A   Overcast
10:15 PM 62.6 °F 58.5 °F 86% 30.09 in 10.0 mi Calm Calm - N/A   Overcast
10:35 PM 61.9 °F 58.1 °F 87% 30.08 in 10.0 mi Calm Calm - N/A   Overcast
10:55 PM 62.1 °F 57.9 °F 86% 30.08 in 10.0 mi Calm Calm - N/A   Overcast
11:15 PM 61.7 °F 58.1 °F 88% 30.07 in 10.0 mi Calm Calm - N/A   Overcast
11:35 PM 61.7 °F 58.1 °F 88% 30.07 in 10.0 mi Calm Calm - N/A   Overcast
11:55 PM 60.8 °F 57.6 °F 89% 30.06 in 10.0 mi Calm Calm - N/A   Overcast